Date String (YYYY-MM-DD hh:mm:ss) UTC,Instrument flags,Ambient pressure (hPa),Sample flow (lpm),Bypass flow (lpm),Sample temperature (°C),Ambient temperature (°C),ASC tube jacket temperature (°C),LED temperature (°C),Box temperature (°C),Sample RH (%),Span deviation,Mass concentration (μg/m³),Mass concentration (μg/m³),Mass concentration (μg/m³)
DateTimeUTC,F1_M11,P_M11,Q1_M11,Q2_M11,T1_M11,T2_M11,T3_M11,T4_M11,T5_M11,U1_M11,ZSPAN_M11,X0_M11,X2_M11,X1_M11
2022-10-27 03:00:00,,0818.5,5.01,0.00,27.7,26.0,00.0,36.7,29.5,11.8,0000.0,0019.29,0005.97,0004.55
2022-10-27 03:01:00,,0818.5,4.99,0.00,27.7,26.0,00.0,36.6,29.6,11.8,0000.0,0018.69,0005.80,0004.46
2022-10-27 03:02:00,,0818.5,5.03,0.00,27.7,26.0,00.0,36.6,29.6,12.0,0000.0,0018.83,0005.85,0004.48
2022-10-27 03:03:00,,0818.5,4.99,0.00,27.7,26.0,00.0,36.6,29.6,12.0,0000.0,0020.04,0005.94,0004.54
2022-10-27 03:04:00,,0818.5,5.00,0.00,27.7,26.0,00.0,36.6,29.6,11.8,0000.0,0021.57,0005.95,0004.51
2022-10-27 03:05:00,,0818.5,5.02,0.00,27.7,26.0,00.0,36.6,29.5,11.9,0000.0,0022.16,0005.97,0004.49
2022-10-27 03:06:00,,0818.5,5.00,0.00,27.7,26.0,00.0,36.6,29.5,11.9,0000.0,0020.64,0005.81,0004.43
2022-10-27 03:07:00,,0818.5,5.00,0.00,27.7,26.0,00.0,36.6,29.5,11.8,0000.0,0019.32,0005.69,0004.37
2022-10-27 03:08:00,,0818.5,5.00,0.00,27.7,26.0,00.0,36.6,29.5,11.9,0000.0,0019.40,0005.66,0004.34
2022-10-27 03:09:00,,0818.5,5.02,0.00,27.7,25.9,00.0,36.6,29.5,11.9,0000.0,0019.76,0005.60,0004.33
2022-10-27 03:10:00,,0818.5,4.99,0.00,27.7,25.9,00.0,36.6,29.5,11.7,0000.0,0019.86,0005.52,0004.26
2022-10-27 03:11:00,,0818.5,4.99,0.00,27.7,25.9,00.0,36.5,29.5,11.7,0000.0,0021.50,0005.54,0004.23
2022-10-27 03:12:00,,0818.6,5.00,0.00,27.6,25.9,00.0,36.5,29.5,11.7,0000.0,0022.42,0005.55,0004.21
2022-10-27 03:13:00,,0818.6,5.01,0.00,27.6,25.9,00.0,36.5,29.4,11.8,0000.0,0021.84,0005.47,0004.13
2022-10-27 03:14:00,,0818.6,4.99,0.00,27.6,25.9,00.0,36.5,29.3,11.7,0000.0,0021.00,0005.32,0004.02
2022-10-27 03:15:00,,0818.6,4.99,0.00,27.6,25.9,00.0,36.5,29.4,11.8,0000.0,0019.61,0005.19,0003.94
2022-10-27 03:16:00,,0818.6,5.01,0.00,27.6,25.8,00.0,36.5,29.4,11.9,0000.0,0019.04,0005.11,0003.92
2022-10-27 03:17:00,,0818.7,4.99,0.00,27.6,25.8,00.0,36.5,29.4,11.8,0000.0,0020.25,0005.07,0003.87
2022-10-27 03:18:00,,0818.7,4.99,0.00,27.6,25.8,00.0,36.5,29.4,11.8,0000.0,0019.97,0004.97,0003.80
2022-10-27 03:19:00,,0818.7,5.00,0.00,27.6,25.8,00.0,36.5,29.4,11.8,0000.0,0019.06,0004.81,0003.74
2022-10-27 03:20:00,,0818.7,5.02,0.00,27.6,25.8,00.0,36.5,29.3,11.8,0000.0,0017.69,0004.64,0003.64
2022-10-27 03:21:00,,0818.7,4.99,0.00,27.6,25.8,00.0,36.5,29.4,11.9,0000.0,0017.95,0004.72,0003.67
2022-10-27 03:22:00,,0818.7,4.99,0.00,27.6,25.8,00.0,36.5,29.4,12.0,0000.0,0016.14,0004.74,0003.73
2022-10-27 03:23:00,,0818.7,5.00,0.00,27.5,25.8,00.0,36.5,29.4,12.0,0000.0,0016.17,0004.82,0003.80
2022-10-27 03:24:00,,0818.8,5.00,0.00,27.5,25.8,00.0,36.4,29.4,12.0,0000.0,0017.04,0004.88,0003.85
2022-10-27 03:25:00,,0818.7,5.00,0.00,27.5,25.8,00.0,36.4,29.4,11.9,0000.0,0016.29,0004.97,0003.92
2022-10-27 03:26:00,,0818.7,5.00,0.00,27.5,25.8,00.0,36.4,29.4,11.6,0000.0,0015.87,0004.92,0003.90
2022-10-27 03:27:00,,0818.7,5.00,0.00,27.5,25.8,00.0,36.4,29.2,11.7,0000.0,0015.71,0004.82,0003.81
2022-10-27 03:28:00,,0818.7,5.00,0.00,27.5,25.7,00.0,36.4,29.2,11.7,0000.0,0014.41,0004.80,0003.79
2022-10-27 03:29:00,,0818.7,5.01,0.00,27.5,25.7,00.0,36.4,29.3,11.8,0000.0,0015.73,0004.84,0003.80
2022-10-27 03:30:00,,0818.7,4.99,0.00,27.5,25.7,00.0,36.4,29.3,11.7,0000.0,0016.82,0004.79,0003.76
2022-10-27 03:31:00,,0818.7,5.00,0.00,27.5,25.7,00.0,36.4,29.3,11.8,0000.0,0016.32,0004.78,0003.74
2022-10-27 03:32:00,,0818.8,5.00,0.00,27.5,25.7,00.0,36.4,29.3,11.9,0000.0,0015.20,0004.73,0003.72
2022-10-27 03:33:00,,0818.8,5.01,0.00,27.5,25.7,00.0,36.4,29.3,11.9,0000.0,0015.02,0004.65,0003.69
2022-10-27 03:34:00,,0818.8,5.00,0.00,27.5,25.7,00.0,36.4,29.3,11.9,0000.0,0015.50,0004.52,0003.63
2022-10-27 03:35:00,,0818.8,4.99,0.00,27.5,25.7,00.0,36.3,29.2,11.9,0000.0,0015.43,0004.38,0003.58
2022-10-27 03:36:00,,0819.0,4.99,0.00,27.5,25.7,00.0,36.3,29.3,11.7,0000.0,0014.86,0004.23,0003.48
2022-10-27 03:37:00,,0818.9,5.00,0.00,27.5,25.8,00.0,36.3,29.3,11.6,0000.0,0014.97,0004.11,0003.39
2022-10-27 03:38:00,,0819.0,5.00,0.00,27.5,25.8,00.0,36.3,29.3,12.0,0000.0,0014.53,0004.15,0003.43
2022-10-27 03:39:00,,0818.9,5.00,0.00,27.5,25.8,00.0,36.3,29.3,12.2,0000.0,0015.15,0004.30,0003.51
2022-10-27 03:40:00,,0818.9,5.00,0.00,27.5,25.8,00.0,36.3,29.3,12.3,0000.0,0015.43,0004.47,0003.59
2022-10-27 03:41:00,,0818.9,5.02,0.00,27.5,25.9,00.0,36.3,29.3,12.4,0000.0,0015.22,0004.66,0003.70
2022-10-27 03:42:00,,0819.0,5.00,0.00,27.5,25.9,00.0,36.3,29.3,12.4,0000.0,0016.38,0004.89,0003.83
2022-10-27 03:43:00,,0819.0,5.00,0.00,27.5,25.9,00.0,36.3,29.4,12.4,0000.0,0017.39,0005.07,0003.93
2022-10-27 03:44:00,,0819.0,5.00,0.00,27.5,25.9,00.0,36.3,29.4,12.4,0000.0,0018.94,0005.20,0004.00
2022-10-27 03:45:00,,0818.9,4.99,0.00,27.5,25.9,00.0,36.3,29.4,12.3,0000.0,0019.64,0005.38,0004.09
2022-10-27 03:46:00,,0818.9,4.99,0.00,27.5,25.9,00.0,36.3,29.4,12.2,0000.0,0020.82,0005.57,0004.17
2022-10-27 03:47:00,,0818.9,5.01,0.00,27.5,25.9,00.0,36.3,29.4,11.9,0000.0,0022.69,0005.82,0004.26
2022-10-27 03:48:00,,0818.9,5.00,0.00,27.5,25.9,00.0,36.3,29.4,11.9,0000.0,0023.39,0006.07,0004.38
2022-10-27 03:49:00,,0818.9,5.01,0.00,27.5,25.9,00.0,36.3,29.4,11.9,0000.0,0024.13,0006.18,0004.43
2022-10-27 03:50:00,,0818.9,5.00,0.00,27.5,25.9,00.0,36.3,29.4,11.9,0000.0,0024.53,0006.20,0004.43
2022-10-27 03:51:00,,0818.9,5.00,0.00,27.5,25.9,00.0,36.3,29.4,11.9,0000.0,0024.91,0006.18,0004.40
2022-10-27 03:52:00,,0818.9,5.00,0.00,27.5,25.9,00.0,36.3,29.4,11.9,0000.0,0024.91,0006.11,0004.37
2022-10-27 03:53:00,,0818.9,5.00,0.00,27.5,25.9,00.0,36.3,29.4,11.9,0000.0,0025.74,0006.07,0004.32
2022-10-27 03:54:00,,0818.9,5.01,0.00,27.5,25.9,00.0,36.3,29.4,11.9,0000.0,0025.90,0005.97,0004.27
2022-10-27 03:55:00,,0818.9,4.99,0.00,27.5,25.9,00.0,36.3,29.4,11.8,0000.0,0026.57,0005.97,0004.24
2022-10-27 03:56:00,,0818.9,4.99,0.00,27.5,25.9,00.0,36.3,29.4,11.8,0000.0,0027.35,0005.98,0004.21
2022-10-27 03:57:00,,0818.9,5.01,0.00,27.5,25.9,00.0,36.3,29.3,11.8,0000.0,0026.24,0005.94,0004.19
2022-10-27 03:58:00,,0818.9,5.01,0.00,27.5,25.9,00.0,36.3,29.3,11.9,0000.0,0025.54,0005.88,0004.19
2022-10-27 03:59:00,,0819.0,5.00,0.00,27.5,25.9,00.0,36.3,29.3,11.8,0000.0,0027.46,0005.86,0004.21
